This is the latest recevied weather packets stored in our database for station/object IZ8QAD-10. If no packets are shown the sender has not sent any weather packets the latest 10 day(s).
| Time | Temp. | Humidity | Pressure | Rain* | Wind** | Luminosity | Snow |
|---|---|---|---|---|---|---|---|
| 1777913555 | 27.78° C | 30% | 970.5 hPa | - | - | - | - |
| 1777911754 | 28.33° C | 29% | 970.3 hPa | - | - | - | - |
| 1777909954 | 28.89° C | 31% | 970.6 hPa | - | - | - | - |
| 1777908154 | 28.33° C | 30% | 970.4 hPa | - | - | - | - |
| 1777906354 | 28.33° C | 32% | 970.5 hPa | - | - | - | - |
| 1777904554 | 28.33° C | 32% | 970.7 hPa | - | - | - | - |
| 1777902754 | 27.78° C | 32% | 970.9 hPa | - | - | - | - |
| 1777900953 | 27.22° C | 33% | 971.1 hPa | - | - | - | - |
| 1777899153 | 27.22° C | 33% | 971.4 hPa | - | - | - | - |
| 1777897353 | 27.22° C | 33% | 971.7 hPa | - | - | - | - |
| 1777895553 | 26.67° C | 33% | 971.7 hPa | - | - | - | - |
| 1777893753 | 26.67° C | 33% | 971.8 hPa | - | - | - | - |
| 1777891953 | 26.67° C | 33% | 972 hPa | - | - | - | - |
| 1777890151 | 26.11° C | 33% | 972.5 hPa | - | - | - | - |
| 1777888351 | 26.11° C | 33% | 973 hPa | - | - | - | - |
| 1777886551 | 26.11° C | 33% | 972.8 hPa | - | - | - | - |
| 1777884751 | 26.11° C | 33% | 973.1 hPa | - | - | - | - |
| 1777882951 | 26.11° C | 33% | 972.8 hPa | - | - | - | - |
| 1777881151 | 25.56° C | 33% | 972.7 hPa | - | - | - | - |
| 1777879350 | 25.56° C | 33% | 972.7 hPa | - | - | - | - |
| 1777877550 | 26.11° C | 33% | 972.6 hPa | - | - | - | - |
| 1777875750 | 26.11° C | 34% | 972.4 hPa | - | - | - | - |
| 1777873950 | 26.11° C | 34% | 972.3 hPa | - | - | - | - |
| 1777872149 | 26.11° C | 34% | 972.2 hPa | - | - | - | - |
| 1777870349 | 26.67° C | 33% | 972 hPa | - | - | - | - |
* Rain since midnight (hover to see other rain measurements)
** Current wind speed in m/s (hover to see current wind gust speed)